Weather History for Brainerd, MN

Change the Weather History Date:

Wednesday, July 3, 2013

  Actual Average Record
Temperature  
Mean Temperature 70 °F -  
Max Temperature 84 °F 79 °F 98 °F (1990)
Min Temperature 55 °F 55 °F 43 °F (1976)
Cooling Degree Days 4    
Growing Degree Days 20 (Base 50)    
Moisture  
Dew Point 55 °F    
Average Humidity 61    
Maximum Humidity 93    
Minimum Humidity 34    
Precipitation  
Precipitation 0.00 in - - ()
Sea Level Pressure  
Sea Level Pressure 30.02 in    
Wind  
Wind Speed 2 mph (South)    
Max Wind Speed 10 mph    
Max Gust Speed -    
Visibility 10 miles    
Events      
Averages and records for this station are not official NWS values.
T = Trace of Precipitation, MM = Missing Value Source: NWS Daily Summary

Daily Weather History Graph

Daily Weather History Graph

Search for Another Location

Airport:

Trip Planner

Search our weather history database for the weather conditions in past years. The results will help you decide how hot, cold, wet, or windy it might be!

Date:

Astronomy

Jul. 03, 2013 Rise Set
Actual Time 5:29 AM CDT 9:11 PM CDT
Civil Twilight 4:50 AM CDT 9:50 PM CDT
Nautical Twilight 3:58 AM CDT 10:42 PM CDT
Astronomical Twilight 2:46 AM CDT 11:54 PM CDT
Moon 2:15 AM CDT (7/3) 5:17 PM CDT (7/3)
Length of Visible Light 16h 59m
Length of Day
15h 42m
Waning Crescent, 18% of the Moon is Illuminated
Jul 3
Waning Crescent
Jul 8
New
Jul 15
First Quarter
Jul 22
Full
Jul 29
Last Quarter

Hourly Weather History & Observations

Time (CDT) Temp. Heat Index Dew Point Humidity Pressure Visibility Wind Dir Wind Speed Gust Speed Precip Events Conditions
12:53 AM 62.1 °F - 55.9 °F 80% 30.09 in 10.0 mi Calm Calm - N/A   Clear
1:53 AM 59.0 °F - 55.9 °F 90% 30.08 in 9.0 mi Calm Calm - N/A   Clear
2:53 AM 57.0 °F - 54.0 °F 89% 30.08 in 9.0 mi Calm Calm - N/A   Clear
3:53 AM 55.0 °F - 53.1 °F 93% 30.07 in 9.0 mi Calm Calm - N/A   Clear
4:53 AM 57.0 °F - 53.1 °F 87% 30.07 in 9.0 mi Calm Calm - N/A   Clear
5:53 AM 55.9 °F - 54.0 °F 93% 30.06 in 7.0 mi Calm Calm - N/A   Clear
6:53 AM 61.0 °F - 55.0 °F 81% 30.07 in 10.0 mi Calm Calm - N/A   Clear
7:53 AM 64.9 °F - 55.9 °F 73% 30.07 in 10.0 mi Calm Calm - N/A   Clear
8:53 AM 71.1 °F - 57.9 °F 63% 30.07 in 10.0 mi Calm Calm - N/A   Clear
9:53 AM 75.0 °F - 57.0 °F 53% 30.06 in 10.0 mi Calm Calm - N/A   Clear
10:53 AM 78.1 °F - 57.0 °F 48% 30.05 in 9.0 mi Calm Calm - N/A   Clear
11:53 AM 79.0 °F - 55.0 °F 44% 30.04 in 9.0 mi West 3.5 mph - N/A   Clear
12:53 PM 82.9 °F - 52.0 °F 34% 30.03 in 10.0 mi South 5.8 mph - N/A   Partly Cloudy
1:53 PM 84.0 °F 82.5 °F 53.1 °F 34% 30.01 in 10.0 mi Variable 4.6 mph - N/A   Clear
2:53 PM 82.9 °F 81.8 °F 53.1 °F 36% 30.01 in 10.0 mi SSE 8.1 mph - N/A   Partly Cloudy
3:53 PM 82.9 °F 81.9 °F 54.0 °F 37% 30.00 in 10.0 mi SSW 10.4 mph - N/A   Partly Cloudy
4:53 PM 82.9 °F 81.9 °F 54.0 °F 37% 29.99 in 10.0 mi SSE 5.8 mph - N/A   Clear
5:53 PM 82.0 °F 81.2 °F 53.1 °F 37% 29.97 in 10.0 mi South 4.6 mph - N/A   Clear
6:53 PM 81.0 °F 80.8 °F 55.9 °F 42% 29.96 in 10.0 mi SSE 6.9 mph - N/A   Clear
7:53 PM 79.0 °F - 57.9 °F 48% 29.95 in 10.0 mi SSE 4.6 mph - N/A   Clear
8:53 PM 73.9 °F - 57.9 °F 57% 29.94 in 9.0 mi SE 4.6 mph - N/A   Clear
9:53 PM 70.0 °F - 57.0 °F 63% 29.95 in 10.0 mi SE 3.5 mph - N/A   Clear
10:53 PM 66.9 °F - 55.9 °F 68% 29.95 in 10.0 mi Calm Calm - N/A   Clear
11:53 PM 64.9 °F - 55.0 °F 70% 29.95 in 10.0 mi Calm Calm - N/A   Clear